Location: Harwich
(41.7160°N, 69.9939°W)
Time: 13:45:21
(UTC+01:00)

Transit 4A - Visible Passes

Search period start: 28 November 2023 00:00
Search period end: 08 December 2023 00:00
Orbit: 864 x 979 km, 66.8° (Epoch: 27 November)

Date Brightness Start Highest point End Pass type
(mag) Time Alt. Az. Time Alt. Az. Time Alt. Az.
28 Nov 10.3 09:50:17 10° N 09:52:31 12° NNE 09:54:43 10° NE visible
28 Nov 8.8 11:34:37 10° NNW 11:40:32 47° NE 11:46:15 10° SE visible
29 Nov 10.2 09:58:40 10° N 10:02:10 16° NE 10:05:40 10° ENE visible
29 Nov 8.2 11:43:38 10° NNW 11:49:45 67° ENE 11:55:40 10° SE visible
30 Nov 9.9 10:07:53 12° N 10:11:43 20° NE 10:16:06 10° E visible
30 Nov 7.9 11:52:45 10° NNW 11:58:54 85° WSW 12:04:49 10° SSE visible
01 Dec 9.6 10:17:10 15° N 10:21:12 27° NE 10:26:13 10° ESE visible
01 Dec 8.0 12:01:58 10° NW 12:07:56 58° WSW 12:13:43 10° SSE visible
02 Dec 9.1 10:26:31 18° N 10:30:34 37° NE 10:36:02 10° ESE visible
02 Dec 8.4 12:11:20 10° NW 12:16:54 39° WSW 12:22:19 10° S visible
03 Dec 10.4 08:52:24 13° NE 08:52:24 13° NE 08:54:37 10° ENE visible
03 Dec 8.5 10:35:57 21° NNW 10:39:51 52° NE 10:45:37 10° SE visible
04 Dec 10.1 09:01:54 17° NE 09:01:54 17° NE 09:05:22 10° ENE visible
04 Dec 7.9 10:45:27 26° NNW 10:49:02 75° ENE 10:54:57 10° SE visible
05 Dec 10.3 01:48:56 10° SSW 01:49:29 13° SSW 01:49:29 13° SSW visible
05 Dec 9.8 09:11:29 22° NE 09:11:29 22° NE 09:15:42 10° E visible
05 Dec 7.7 10:55:02 30° NW 10:58:08 76° WSW 11:04:01 10° SSE visible
06 Dec 9.5 00:13:38 10° SSE 00:15:53 18° SE 00:15:53 18° SE visible
06 Dec 10.2 01:58:12 10° SW 01:59:27 16° SW 01:59:27 16° SW visible
06 Dec 9.4 09:21:08 29° ENE 09:21:08 29° ENE 09:25:43 10° ESE visible
06 Dec 8.0 11:04:42 32° WNW 11:07:09 51° WSW 11:12:49 10° S visible
07 Dec 8.9 00:21:47 10° S 00:25:48 31° SE 00:25:48 31° SE visible
07 Dec 10.2 02:07:43 10° WSW 02:09:22 18° WSW 02:09:22 18° WSW visible
07 Dec 9.0 09:30:53 38° ENE 09:30:53 38° ENE 09:35:27 10° ESE visible
07 Dec 8.5 11:14:26 29° WNW 11:16:05 34° WSW 11:21:18 10° S visible
